KUIPER-00064

Last updated on Thu Jul 03 2025 00:02:08 GMT+0000 (Coordinated Universal Time)

1 64524U 25134AA 25183.58335648 .00005377 00000+0 15920-3 0 9998 2 64524 51.8784 286.8634 0001705 80.5984 62.2467 15.36505973 2496
UTC large
Height (km)
Speed (km/s)
/
Latitude / Longitude
Inclination (degrees)
Orbital Period (minutes)
Azimuth
Elevation
Range (km)
Doppler Factor

Next 0 passes for location: London (51.5072 / 0.1276)

Sorry there are no passes over London.